This is the latest recevied weather packets stored in our database for station/object XE2OR-10. If no packets are shown the sender has not sent any weather packets the latest 10 day(s).
| Time | Temp. | Humidity | Pressure | Rain* | Wind** | Luminosity | Snow |
|---|---|---|---|---|---|---|---|
| 1777510432 | 31.11° C | 81% | 1012.4 hPa | 0 mm | - | 28 W/m² | - |
| 1777510129 | 31.11° C | 81% | 1012.1 hPa | 0 mm | - | 39 W/m² | - |
| 1777509832 | 31.67° C | 80% | 1012.1 hPa | 0 mm | - | 45 W/m² | - |
| 1777509529 | 31.67° C | 80% | 1011.9 hPa | 0 mm | - | 46 W/m² | - |
| 1777509229 | 31.67° C | 80% | 1011.8 hPa | 0 mm | - | 46 W/m² | - |
| 1777508929 | 31.67° C | 80% | 1011.9 hPa | 0 mm | - | 43 W/m² | - |
| 1777508632 | 31.67° C | 80% | 1011.6 hPa | 0 mm | - | 45 W/m² | - |
| 1777508329 | 31.67° C | 80% | 1011.8 hPa | 0 mm | - | 42 W/m² | - |
| 1777508033 | 31.67° C | 79% | 1011.6 hPa | 0 mm | - | 45 W/m² | - |
| 1777507729 | 32.22° C | 79% | 1011.6 hPa | 0 mm | - | 54 W/m² | - |
| 1777507429 | 32.22° C | 79% | 1011.3 hPa | 0 mm | - | 88 W/m² | - |
| 1777507129 | 32.22° C | 79% | 1011.6 hPa | 0 mm | - | 73 W/m² | - |
| 1777506833 | 32.22° C | 79% | 1011.3 hPa | 0 mm | - | 98 W/m² | - |
| 1777506529 | 32.78° C | 78% | 1011.4 hPa | 0 mm | - | 154 W/m² | - |
| 1777506233 | 32.22° C | 79% | 1011.2 hPa | 0 mm | - | 140 W/m² | - |
| 1777505930 | 32.78° C | 78% | 1011.2 hPa | 0 mm | - | 140 W/m² | - |
| 1777505629 | 32.78° C | 78% | 1011.4 hPa | 0 mm | - | 123 W/m² | - |
| 1777505328 | 32.78° C | 77% | 1011.5 hPa | 0 mm | - | 220 W/m² | - |
| 1777505032 | 33.33° C | 77% | 1011.7 hPa | 0 mm | - | 209 W/m² | - |
| 1777504729 | 32.78° C | 77% | 1011.5 hPa | 0 mm | - | 295 W/m² | - |
| 1777504432 | 32.78° C | 78% | 1011.5 hPa | 0 mm | - | 178 W/m² | - |
| 1777504129 | 33.33° C | 76% | 1011.5 hPa | 0 mm | - | 263 W/m² | - |
| 1777503832 | 32.78° C | 78% | 1011.6 hPa | 0 mm | - | 239 W/m² | - |
| 1777503828 | 32.78° C | 78% | 1011.6 hPa | 0 mm | - | 239 W/m² | - |
| 1777503529 | 32.78° C | 77% | 1011.6 hPa | 0 mm | - | 228 W/m² | - |
* Rain latest hour (hover to see other rain measurements)
** Current wind speed in m/s (hover to see current wind gust speed)